Location: Les Chemineaux
(47.3024°N, 1.5104°E)
Time: 05:33:42
(UTC+00:00)

Cosmos 1300 - Pass Details

Date: 19 May 2025
Orbit: 394 x 398 km, 82.5° (Epoch: 13 June)

Event Time Altitude Azimuth Distance (km) Brightness Sun altitude
Rises 23:37:46 0° 354° (N) 2,319 7.5 -22.6°
Reaches altitude 10° 23:39:49 10° 359° (N) 1,454 6.1 -22.7°
Enters shadow 23:42:10 41° 27° (NNE) 591 3.3 -22.7°
